This demonstration page uses our WeatherBlox Daily Observations layout. Learn more.

Left ArrowRight Arrow

Hourly Observations for June 17, 2021

Temp ( °F °C ) Dew Point ( °F °C ) Humidity (%) Winds ( mph kmh ) Pressure ( in mb ) Visibility ( mi km ) Precip ( " mm )
12:56 am 00:56 Clear 82 27.8 59 15 46 46 SSW 14 22 29.84 1011 10 16 0.00 0.00
1:56 am 01:56 Clear 79 26.1 59 15 50 50 SW 12 19 29.84 1010 10 16 0.00 0.00
2:56 am 02:56 Clear 78 25.6 60 15.6 54 54 SW 8 13 29.85 1011 10 16 0.00 0.00
3:56 am 03:56 Clear 70 21.1 60 15.6 71 71 S 5 7 29.85 1011 10 16 0.00 0.00
4:56 am 04:56 Clear 73 22.8 60 15.6 64 64 SSW 12 19 29.83 1010 10 16 0.00 0.00
5:56 am 05:56 Clear 74 23.3 59 15 60 60 SSW 14 22 29.81 1009 10 16 0.00 0.00
6:56 am 06:56 Sunny 75 23.9 60 15.6 60 60 W 7 11 29.82 1010 10 16 0.00 0.00
7:56 am 07:56 Sunny 77 25 62 16.7 60 60 S 5 7 29.83 1010 10 16 0.00 0.00
8:56 am 08:56 Sunny 80 26.7 62 16.7 54 54 W 3 6 29.83 1010 10 16 0.00 0.00
9:56 am 09:56 Sunny 83 28.3 65 18.3 55 55 S 7 11 29.82 1010 10 16 0.00 0.00
10:56 am 10:56 Sunny 88 31.1 64 17.8 45 45 SSW 10 17 29.80 1009 10 16 0.00 0.00
11:56 am 11:56 Sunny 91 32.8 66 18.9 44 44 undefined N/A 29.80 1009 10 16 0.00 0.00
12:56 pm 12:56 Sunny 95 35 67 19.4 40 40 S 14 22 29.78 1009 10 16 0.00 0.00
1:56 pm 13:56 Sunny 98 36.7 67 19.4 36 36 SSW 16 26 29.75 1008 10 16 0.00 0.00
2:56 pm 14:56 Sunny 101 38.3 64 17.8 30 30 SSW 21 33 29.72 1007 10 16 0.00 0.00
3:56 pm 15:56 Sunny 100 37.8 61 16.1 28 28 S 21 33 29.72 1007 10 16 0.00 0.00
4:56 pm 16:56 Sunny 102 38.9 60 15.6 25 25 S 17 28 29.70 1006 10 16 0.00 0.00
5:56 pm 17:56 Sunny 101 38.3 59 15 25 25 S 17 28 29.69 1005 10 16 0.00 0.00
6:56 pm 18:56 Sunny 98 36.7 61 16.1 29 29 S 15 24 29.67 1005 10 16 0.00 0.00
7:56 pm 19:56 Sunny 94 34.4 62 16.7 35 35 SW 9 15 29.68 1005 10 16 0.00 0.00
8:56 pm 20:56 Sunny 95 35 60 15.6 31 31 NNW 7 11 29.70 1006 10 16 0.00 0.00
9:56 pm 21:56 Clear 84 28.9 68 20 59 59 NNE 12 19 29.72 1006 10 16 0.00 0.00
10:56 pm 22:56 Clear 82 27.8 71 21.7 69 69 NE 12 19 29.74 1007 10 16 0.00 0.00
11:30 pm 23:30 Clear 81 27 70 21 70 70 NE 12 19 29.70 1006 10 16 0.00 0.00
11:56 pm 23:56 Clear 79 26.1 70 21.1 74 74 NE 6 9 29.74 1007 10 16 0.00 0.00

Powered by AerisWeather